SYNCOM 2 (A 26)

Satellite information

Favourite Embed

Satellite Type and Status

PAYLOADIN ORBIT

Key statistics

Satellite SYNCOM 2 (A 26) at a glance.

Uptime

22746

Days in orbit

Revolutions

≈ 1.0

Per day

Orbit

OTHER

Other

Inclination

30.5

Latest

Satellite identification and parameters

Extended collection of information and parameters for SYNCOM 2 (A 26).

Object identification

Identified? True

Debris? False

Object name: SYNCOM 2 (A 26)

International designator: 1963-031A

Object number (NORAD): 634

Object ID (CCSDS): 634

Country: UNITED STATES OF AMERICA (US)

Current information (Y/N): Y

RCS size: LARGE

Orbital parameters

Period: 1436.304 minutes

Inclination: 30.4734 deg

SMA: 42168.786 km

Apoapsis: 35824.457 km

Periapsis: 35756.844 km

RAAN: 303.6546 deg

Eccentricy: 0.0008017

Argument of periapsis: 211.2958 deg

Mean anomaly: 154.8894 deg

Mean motion: 1.00257327 rev/day

Mean motion (dot): -0.00000153 rev/day2

B* drag term: 0.0 1/REarth

Two-line elements (TLE)

Creation date: Nov. 2, 2025, 3:46 p.m.

Reference frame: TEME

Reference center: EARTH

Epoch: Nov. 2, 2025, 12:19 p.m. UTC

TLE line 0: 0 SYNCOM 2 (A 26)

TLE line 1: 1 634U 63031A 25306.51370306 -.00000153 00000-0 00000+0 0 9996

TLE line 2: 2 634 30.4734 303.6546 0008017 211.2958 154.8894 1.00257327228094

Live tracking on map

Real-time ground track for satellite SYNCOM 2 (A 26).

In-orbit conjunctions

A list of the most updated potential collisions computed for object SYNCOM 2 (A 26).

Target Orbit TCA Probability of collision Miss distance Type
RADUGA 5 OTHER 2025-01-27 07:12:38 TBA 2451.0 (m) PAYLOAD
FENGYUN 2D DEB OTHER 2024-11-29 09:47:29 TBA 177.0 (m) DEBRIS
SATCOM 3 DEB OTHER 2024-09-10 17:03:30 TBA 4829.0 (m) DEBRIS
EKRAN 20 OTHER 2024-06-09 09:33:44 TBA 3652.0 (m) PAYLOAD

Associated space launch

Syncom 2 was the first geosynchronous satellite. Although the period was 24 hours and the spacecraft remained at a nearly constant longitude, the orbit was inclined at 33 degrees so it was not truly geostationary but moved in an elongated figure eight pattern 33 degrees north and south of the equator.

SYNCOM 2 (A 26) was lifted into orbit during the mission ‘Thor Delta B | Syncom 2’, on board a Thor Delta B space rocket.

The launch took place on July 26, 1963, 2:33 p.m. from Space Launch Complex 17A.

For more information about the launch, click the button.

Launch to space Thor Delta B | Syncom 2
Thor Delta B | Syncom 2

Agency: N/A

Status: Launch Successful

Launch date: July 26, 1963, 2:33 p.m. UTC

Rocket: Thor Delta B

Launch pad: Space Launch Complex 17A

Location: Cape Canaveral SFS, FL, USA

...

Latest news about this satellite

There are no fresh news available about this satellite. Check back as we update our databases every day.


Newsletter sign-up

Weekly statistics, charts and insights to help you stay on top of the space industry.